Вернуться в каталог

FENGYUN 2B AKM

АктивенGEO
NORAD 26460·ROCKET BODY·🇨🇳 China

Запущен Jun 25, 2000 с Xichang Satellite Launch Center

Loading…

TLE

СвежийSource: Space-Track

Эпоха: Sep 13, 2026, 16:10 UTC

1 26460U 00032C   26256.67413028 -.00000365  00000-0  00000-0 0  9990
2 26460  14.4710   5.5371 0021887  45.3348 314.8595  1.00177686123064

Отслеживайте FENGYUN 2B AKM в реальном времени с AllMySat

Download on the App Store